Regional Weather Roundup
Issued by NWS Newport/Morehead, NC

Current Version | Previous Version | Graphics & Text | Print | Product List | Glossary Off
Versions: 1 2 3 4 5 6 7 8 9 10 11 12 13 14 15 16 17 18 19 20 21 22 23 24 25 26 27 28 29 30 31 32 33 34 35 36 37 38 39 40 41 42 43 44 45 46 47 48 49 50

000
ASUS42 KMHX 202113
RWRMHX
WEATHER ROUNDUP FOR EASTERN NORTH CAROLINA
NATIONAL WEATHER SERVICE NEWPORT/MOREHEAD CITY NC
500 PM EDT FRI OCT 20 2017

NOTE: "FAIR" INDICATES FEW OR NO CLOUDS BELOW 12,000 FEET
WITH NO SIGNIFICANT WEATHER AND/OR OBSTRUCTIONS TO VISIBILITY

NCZ015>017-031-032-045>047-102-103-202200-
NORTH COAST

CITY           SKY/WX    TMP DP  RH WIND       PRES   REMARKS
EDENTON        SUNNY     76  55  47 CALM      30.19R
ELIZABETH CITY SUNNY     73  54  51 E7        30.18S
KITTY HAWK     CLEAR     70  56  60 CALM      30.18S
MANTEO         SUNNY    N/A N/A N/A NE7       30.19S

$$

NCZ045>047-081-094-103-104-202200-
CENTRAL COAST

CITY           SKY/WX    TMP DP  RH WIND       PRES   REMARKS
FRISCO         SUNNY     75  55  49 CALM      30.18S

$$

NCZ095-097-098-100-101-202200-
SOUTHERN COAST

CITY           SKY/WX    TMP DP  RH WIND       PRES   REMARKS
BEAUFORT       SUNNY     74  55  51 S7        30.18S
CEDAR ISLAND   NOT AVBL
JACKSONVILLE   SUNNY     78  50  37 SE5       30.17S
PINEY ISLAND     N/A    N/A N/A N/A E5        30.18S
WILMINGTON     SUNNY     79  52  38 E5        30.17F


$$

NCZ011>013-027>030-043-044-078>080-089-090>093-098-202200-
COASTAL PLAIN

CITY           SKY/WX    TMP DP  RH WIND       PRES   REMARKS
AHOSKIE        SUNNY     74  52  45 N3        30.19S
CLINTON        SUNNY     79  51  37 NW5       30.18S
ELIZABETHTOWN  NOT AVBL
GOLDSBORO      NOT AVBL
GREENVILLE     SUNNY     79  45  29 CALM      30.19S
HAVELOCK       SUNNY     78  48  34 NE5       30.19R
KENANSVILLE    SUNNY     81  43  26 NW7       30.18S
KINSTON        SUNNY     79  46  31 CALM      30.18S
NEW BERN       SUNNY     78  49  35 SE3       30.18S
RICHLANDS      SUNNY     79  50  36 SE3       30.17F
ROCKY MOUNT    SUNNY     77  50  38 N6        30.19S
WASHINGTON     SUNNY     78  50  37 N5        30.18S
WHITEVILLE     SUNNY     78  49  35 CALM      30.17S

$$

AMZ130-135-150-152-154-156-158-170-250-252-270-ANZ085-086-088-633-658-670-202200-
MARINE OBSERVATIONS

STATION/POSITION TIME  TEMP    WIND        PRES    WAVE   SWELL
                       AIR SEA DIR/SP/G            HT/PER HT/PER
                 (UTC) (F)     (DEG/KT/KT) (MB)    (FT/S) (FT/S)
CHESAPEAKE LIGHT NOT AVBL
64 E VA BEACH    2050   68 68  360/  6/  8 1022.2    3/ 9   2/ 9
DUCK             2036   69 71   30/  6/  8 1021.7
2 E DUCK         2100      70                N/A     2/ 8
OREGON INLET     2036   71 69   10/  6/ 10 1022.0
13E OREGON INLT  2018      72                N/A     3/ 9   2/ 9
HATTERAS CG      2036   73 71  320/  2/  2 1021.9
DIAMOND BUOY     2050   73 81  350/  6/ 10 1021.9    3/ 9   3/ 9
CAPE LOOKOUT     2100   73     170/  3/  4 1021.8
BEAUFORT LAB     2036   75 71  220/  3/  5 1022.1
30 SE NEW RVR IN 2008   74     280/  2/  4 1022.2
30 SE NEW RVR IN NOT AVBL
27 SE WRIGHTSVLE 2008   74 76  360/  2/  6 1022.4
5 SE WRIGHTSVLE  2008   73 75  150/  8/ 12 1021.9
225 S CAPE HAT   1950   77 80   40/ 12/ 14 1020.5    5/ 8   5/ 8
41 SE CHARLESTON 2050   74 80   30/  6/  8 1021.6    3/ 9   3/ 9

$$




USA.gov is the U.S. government's official web portal to all federal, state and local government web resources and services.